This demonstration page uses our WeatherBlox Daily Observations layout. Learn more.

Left ArrowRight Arrow

38.88101, -77.10428

Hourly Observations for March 18, 2019

Temp ( °F °C ) Dew Point ( °F °C ) Humidity (%) Winds ( mph kmh ) Pressure ( in mb ) Visibility ( mi km ) Precip ( " mm )
12:52 am 00:52 Cloudy 44 6.7 27 -2.8 51 51 Calm 30.24 1024 10 16.0934 0 0
1:52 am 01:52 Cloudy 42 5.6 27 -2.8 55 55 Calm 30.22 1023 10 16.0934 0 0
2:52 am 02:52 Partly Cloudy 42 5.6 27 -2.8 55 55 ENE 5 7 30.21 1023 10 16.0934 0 0
3:52 am 03:52 Mostly Clear 41 5 29 -1.7 62 62 ENE 7 11 30.2 1023 10 16.0934 0 0
4:52 am 04:52 Mostly Cloudy 42 5.6 23 -5 47 47 N 5 7 30.21 1023 10 16.0934 0 0
5:52 am 05:52 Cloudy 42 5.6 23 -5 47 47 NE 6 9 30.22 1024 10 16.0934 0 0
6:52 am 06:52 Cloudy 42 5.6 20 -6.7 41 41 NE 3 6 30.25 1024 10 16.0934 0 0
7:52 am 07:52 Cloudy 42 5.6 23 -5 47 47 ENE 7 11 30.25 1025 10 16.0934 0 0
8:52 am 08:52 Cloudy 44 6.7 24 -4.4 45 45 NE 10 17 30.27 1025 10 16.0934 0 0
9:52 am 09:52 Cloudy 45 7.2 27 -2.8 49 49 NE 9 15 30.29 1026 10 16.0934 0 0
10:52 am 10:52 Cloudy 44 6.7 26 -3.3 49 49 E 7 11 30.3 1026 10 16.0934 0 0
11:52 am 11:52 Cloudy 45 7.2 27 -2.8 49 49 ENE 6 9 30.3 1026 10 16.0934 0 0
12:52 pm 12:52 Mostly Cloudy 45 7.2 28 -2.2 52 52 SE 5 7 30.3 1026 10 16.0934 0 0.0254
1:52 pm 13:52 Mostly Cloudy 47 8.3 30 -1.1 52 52 S 5 7 30.28 1025 10 16.0934 0 0
2:52 pm 14:52 Cloudy 47 8.3 27 -2.8 46 46 E 3 6 30.26 1025 10 16.0934 0 0
3:52 pm 15:52 Mostly Cloudy 48 8.9 27 -2.8 44 44 S 5 7 30.26 1025 10 16.0934 0 0
4:52 pm 16:52 Mostly Cloudy 50 10 26 -3.3 39 39 E 3 6 30.26 1025 10 16.0934 0 0
5:52 pm 17:52 Mostly Cloudy 50 10 22 -5.6 33 33 NNE 7 11 30.27 1025 10 16.0934 0 0
6:52 pm 18:52 Mostly Cloudy 49 9.4 19 -7.2 31 31 NNW 10 17 30.29 1026 10 16.0934 0 0
7:52 pm 19:52 Cloudy 46 7.8 28 -2.2 50 50 SSE 10 17 30.32 1027 10 16.0934 0 0
8:52 pm 20:52 Cloudy 45 7.2 31 -0.6 58 58 S 8 13 30.34 1028 10 16.0934 0 0
9:52 pm 21:52 Partly Cloudy 43 6.1 32 0 65 65 S 8 13 30.36 1028 10 16.0934 0 0
10:52 pm 22:52 Partly Cloudy 41 5 33 0.6 73 73 WSW 7 11 30.38 1029 10 16.0934 0 0
11:52 pm 23:52 Partly Cloudy 41 5 32 0 70 70 SW 5 7 30.39 1029 10 16.0934 0 0

Powered by AerisWeather